Year,Month,Day,Hour,Minute,Value (Times are PST for temperature in C)
2016,04,28,00,00,7.80
2016,04,28,00,01,7.80
2016,04,28,00,02,7.80
2016,04,28,00,03,7.70
2016,04,28,00,04,7.70
2016,04,28,00,05,7.70
2016,04,28,00,06,7.70
2016,04,28,00,07,7.70
2016,04,28,00,08,7.70
2016,04,28,00,09,7.70
2016,04,28,00,10,7.70
2016,04,28,00,11,7.70
2016,04,28,00,12,7.70
2016,04,28,00,13,7.70
2016,04,28,00,14,7.70
2016,04,28,00,15,7.70
2016,04,28,00,16,7.70
2016,04,28,00,17,7.60
2016,04,28,00,18,7.70
2016,04,28,00,19,7.70
2016,04,28,00,20,7.70
2016,04,28,00,21,7.70
2016,04,28,00,22,7.70
2016,04,28,00,23,7.70
2016,04,28,00,24,7.70
2016,04,28,00,25,7.70
2016,04,28,00,26,7.70
2016,04,28,00,27,7.60
2016,04,28,00,28,7.60
2016,04,28,00,29,7.60
2016,04,28,00,30,7.60
2016,04,28,00,31,7.60
2016,04,28,00,32,7.60
2016,04,28,00,33,7.60
2016,04,28,00,34,7.60
2016,04,28,00,35,7.50
2016,04,28,00,36,7.50
2016,04,28,00,37,7.50
2016,04,28,00,38,7.50
2016,04,28,00,39,7.50
2016,04,28,00,40,7.50
2016,04,28,00,41,7.50
2016,04,28,00,42,7.50
2016,04,28,00,43,7.40
2016,04,28,00,44,7.30
2016,04,28,00,45,7.30
2016,04,28,00,46,7.30
2016,04,28,00,47,7.30
2016,04,28,00,48,7.20
2016,04,28,00,49,7.20
2016,04,28,00,50,7.20
2016,04,28,00,51,7.20
2016,04,28,00,52,7.20
2016,04,28,00,53,7.20
2016,04,28,00,54,7.20
2016,04,28,00,55,7.20
2016,04,28,00,56,7.20
2016,04,28,00,57,7.20
2016,04,28,00,58,7.20
2016,04,28,00,59,7.20
2016,04,28,01,00,7.20
2016,04,28,01,01,7.20
2016,04,28,01,02,7.20
2016,04,28,01,03,7.10
2016,04,28,01,04,7.10
2016,04,28,01,05,7.10
2016,04,28,01,06,7.10
2016,04,28,01,07,7.10
2016,04,28,01,08,7.10
2016,04,28,01,09,7.10
2016,04,28,01,10,7.10
2016,04,28,01,11,7.10
2016,04,28,01,12,7.10
2016,04,28,01,13,7.10
2016,04,28,01,14,7.10
2016,04,28,01,15,7.10
2016,04,28,01,16,7.10
2016,04,28,01,17,7.10
2016,04,28,01,18,7.10
2016,04,28,01,19,7.10
2016,04,28,01,20,7.00
2016,04,28,01,21,7.00
2016,04,28,01,22,7.00
2016,04,28,01,23,6.90
2016,04,28,01,24,6.90
2016,04,28,01,25,6.90
2016,04,28,01,26,6.90
2016,04,28,01,27,6.90
2016,04,28,01,28,6.90
2016,04,28,01,29,6.90
2016,04,28,01,30,6.80
2016,04,28,01,31,6.90
2016,04,28,01,32,6.90
2016,04,28,01,33,6.90
2016,04,28,01,34,6.90
2016,04,28,01,35,6.80
2016,04,28,01,36,6.80
2016,04,28,01,37,6.80
2016,04,28,01,38,6.80
2016,04,28,01,39,6.80
2016,04,28,01,40,6.80
2016,04,28,01,41,6.80
2016,04,28,01,42,6.80
2016,04,28,01,43,6.80
2016,04,28,01,44,6.80
2016,04,28,01,45,6.80
2016,04,28,01,46,6.80
2016,04,28,01,47,6.80
2016,04,28,01,48,6.80
2016,04,28,01,49,6.70
2016,04,28,01,50,6.70
2016,04,28,01,51,6.70
2016,04,28,01,52,6.70
2016,04,28,01,53,6.70
2016,04,28,01,54,6.70
2016,04,28,01,55,6.70
2016,04,28,01,56,6.70
2016,04,28,01,57,6.70
2016,04,28,01,58,6.70
2016,04,28,01,59,6.70
2016,04,28,02,00,6.70
2016,04,28,02,01,6.70
2016,04,28,02,02,6.70
2016,04,28,02,03,6.70
2016,04,28,02,04,6.70
2016,04,28,02,05,6.70
2016,04,28,02,06,6.70
2016,04,28,02,07,6.70
2016,04,28,02,08,6.70
2016,04,28,02,09,6.70
2016,04,28,02,10,6.70
2016,04,28,02,11,6.70
2016,04,28,02,12,6.70
2016,04,28,02,13,6.70
2016,04,28,02,14,6.70
2016,04,28,02,15,6.70
2016,04,28,02,16,6.60
2016,04,28,02,17,6.60
2016,04,28,02,18,6.60
2016,04,28,02,19,6.60
2016,04,28,02,20,6.60
2016,04,28,02,21,6.60
2016,04,28,02,22,6.60
2016,04,28,02,23,6.60
2016,04,28,02,24,6.60
2016,04,28,02,25,6.60
2016,04,28,02,26,6.60
2016,04,28,02,27,6.60
2016,04,28,02,28,6.60
2016,04,28,02,29,6.60
2016,04,28,02,30,6.60
2016,04,28,02,31,6.50
2016,04,28,02,32,6.50
2016,04,28,02,33,6.50
2016,04,28,02,34,6.50
2016,04,28,02,35,6.50
2016,04,28,02,36,6.50
2016,04,28,02,37,6.50
2016,04,28,02,38,6.50
2016,04,28,02,39,6.50
2016,04,28,02,40,6.50
2016,04,28,02,41,6.50
2016,04,28,02,42,6.40
2016,04,28,02,43,6.40
2016,04,28,02,44,6.40
2016,04,28,02,45,6.40
2016,04,28,02,46,6.40
2016,04,28,02,47,6.40
2016,04,28,02,48,6.40
2016,04,28,02,49,6.30
2016,04,28,02,50,6.30
2016,04,28,02,51,6.30
2016,04,28,02,52,6.30
2016,04,28,02,53,6.30
2016,04,28,02,54,6.30
2016,04,28,02,55,6.20
2016,04,28,02,56,6.20
2016,04,28,02,57,6.20
2016,04,28,02,58,6.20
2016,04,28,02,59,6.10
2016,04,28,03,00,6.10
2016,04,28,03,01,6.10
2016,04,28,03,02,6.10
2016,04,28,03,06,6.10
2016,04,28,03,07,6.10
2016,04,28,03,08,6.10
2016,04,28,03,09,6.10
2016,04,28,03,10,6.10
2016,04,28,03,11,6.10
2016,04,28,03,12,6.10
2016,04,28,03,13,6.10
2016,04,28,03,14,6.00
2016,04,28,03,15,6.00
2016,04,28,03,16,6.00
2016,04,28,03,17,6.00
2016,04,28,03,18,6.00
2016,04,28,03,19,6.00
2016,04,28,03,20,6.00
2016,04,28,03,21,6.00
2016,04,28,03,22,6.00
2016,04,28,03,23,5.90
2016,04,28,03,24,5.90
2016,04,28,03,25,5.90
2016,04,28,03,26,5.90
2016,04,28,03,27,5.90
2016,04,28,03,28,5.90
2016,04,28,03,29,5.90
2016,04,28,03,30,5.90
2016,04,28,03,31,5.90
2016,04,28,03,32,5.90
2016,04,28,03,33,5.90
2016,04,28,03,34,5.80
2016,04,28,03,35,5.80
2016,04,28,03,36,5.80
2016,04,28,03,37,5.80
2016,04,28,03,38,5.80
2016,04,28,03,39,5.90
2016,04,28,03,40,5.90
2016,04,28,03,41,5.90
2016,04,28,03,42,5.90
2016,04,28,03,43,5.90
2016,04,28,03,44,5.90
2016,04,28,03,45,5.90
2016,04,28,03,46,5.90
2016,04,28,03,47,5.90
2016,04,28,03,48,5.90
2016,04,28,03,49,5.80
2016,04,28,03,50,5.80
2016,04,28,03,51,5.80
2016,04,28,03,52,5.80
2016,04,28,03,53,5.80
2016,04,28,03,54,5.70
2016,04,28,03,55,5.70
2016,04,28,03,56,5.70
2016,04,28,03,57,5.70
2016,04,28,03,58,5.60
2016,04,28,03,59,5.60
2016,04,28,04,00,5.60
2016,04,28,04,01,5.60
2016,04,28,04,02,5.60
2016,04,28,04,03,5.60
2016,04,28,04,04,5.60
2016,04,28,04,05,5.60
2016,04,28,04,06,5.60
2016,04,28,04,07,5.60
2016,04,28,04,08,5.60
2016,04,28,04,09,5.60
2016,04,28,04,10,5.60
2016,04,28,04,11,5.60
2016,04,28,04,12,5.60
2016,04,28,04,13,5.60
2016,04,28,04,14,5.60
2016,04,28,04,15,5.60
2016,04,28,04,16,5.60
2016,04,28,04,17,5.60
2016,04,28,04,18,5.60
2016,04,28,04,19,5.60
2016,04,28,04,20,5.50
2016,04,28,04,21,5.50
2016,04,28,04,22,5.50
2016,04,28,04,23,5.50
2016,04,28,04,24,5.40
2016,04,28,04,25,5.40
2016,04,28,04,26,5.40
2016,04,28,04,27,5.40
2016,04,28,04,28,5.30
2016,04,28,04,29,5.30
2016,04,28,04,30,5.30
2016,04,28,04,31,5.30
2016,04,28,04,32,5.30
2016,04,28,04,33,5.30
2016,04,28,04,34,5.30
2016,04,28,04,35,5.20
2016,04,28,04,36,5.20
2016,04,28,04,37,5.20
2016,04,28,04,38,5.20
2016,04,28,04,39,5.20
2016,04,28,04,40,5.20
2016,04,28,04,41,5.20
2016,04,28,04,42,5.20
2016,04,28,04,43,5.20
2016,04,28,04,44,5.20
2016,04,28,04,45,5.20
2016,04,28,04,46,5.20
2016,04,28,04,47,5.20
2016,04,28,04,48,5.20
2016,04,28,04,49,5.20
2016,04,28,04,50,5.20
2016,04,28,04,51,5.20
2016,04,28,04,52,5.10
2016,04,28,04,53,5.10
2016,04,28,04,54,5.10
2016,04,28,04,55,5.10
2016,04,28,04,56,5.10
2016,04,28,04,57,5.10
2016,04,28,04,58,5.10
2016,04,28,04,59,5.10
2016,04,28,05,00,5.10
2016,04,28,05,01,5.10
2016,04,28,05,02,5.10
2016,04,28,05,03,5.10
2016,04,28,05,04,5.10
2016,04,28,05,05,5.10
2016,04,28,05,06,5.10
2016,04,28,05,07,5.10
2016,04,28,05,08,5.10
2016,04,28,05,09,5.10
2016,04,28,05,10,5.10
2016,04,28,05,11,5.10
2016,04,28,05,12,5.10
2016,04,28,05,13,5.10
2016,04,28,05,14,5.00
2016,04,28,05,15,5.00
2016,04,28,05,16,5.00
2016,04,28,05,17,5.00
2016,04,28,05,18,5.00
2016,04,28,05,19,5.00
2016,04,28,05,20,5.00
2016,04,28,05,21,5.00
2016,04,28,05,22,4.90
2016,04,28,05,23,4.90
2016,04,28,05,24,4.90
2016,04,28,05,25,4.90
2016,04,28,05,26,4.90
2016,04,28,05,27,4.90
2016,04,28,05,28,4.90
2016,04,28,05,29,4.90
2016,04,28,05,30,4.90
2016,04,28,05,31,4.90
2016,04,28,05,32,4.90
2016,04,28,05,33,4.90
2016,04,28,05,34,4.80
2016,04,28,05,35,4.80
2016,04,28,05,36,4.80
2016,04,28,05,37,4.80
2016,04,28,05,38,4.80
2016,04,28,05,39,4.80
2016,04,28,05,40,4.80
2016,04,28,05,41,4.80
2016,04,28,05,42,4.80
2016,04,28,05,43,4.80
2016,04,28,05,44,4.90
2016,04,28,05,45,4.90
2016,04,28,05,46,4.90
2016,04,28,05,47,4.90
2016,04,28,05,48,4.80
2016,04,28,05,49,4.90
2016,04,28,05,50,4.80
2016,04,28,05,51,4.80
2016,04,28,05,52,4.80
2016,04,28,05,53,4.80
2016,04,28,05,54,4.80
2016,04,28,05,55,4.80
2016,04,28,05,56,4.80
2016,04,28,05,57,4.80
2016,04,28,05,58,4.80
2016,04,28,05,59,4.80
2016,04,28,06,00,4.80
2016,04,28,06,01,4.80
2016,04,28,06,02,4.80
2016,04,28,06,03,4.70
2016,04,28,06,04,4.70
2016,04,28,06,05,4.70
2016,04,28,06,06,4.70
2016,04,28,06,07,4.70
2016,04,28,06,08,4.70
2016,04,28,06,09,4.70
2016,04,28,06,10,4.70
2016,04,28,06,11,4.70
2016,04,28,06,12,4.70
2016,04,28,06,13,4.80
2016,04,28,06,14,4.70
2016,04,28,06,15,4.70
2016,04,28,06,16,4.70
2016,04,28,06,17,4.70
2016,04,28,06,18,4.70
2016,04,28,06,19,4.70
2016,04,28,06,20,4.70
2016,04,28,06,21,4.70
2016,04,28,06,22,4.60
2016,04,28,06,23,4.60
2016,04,28,06,24,4.60
2016,04,28,06,25,4.60
2016,04,28,06,26,4.60
2016,04,28,06,27,4.60
2016,04,28,06,28,4.60
2016,04,28,06,29,4.50
2016,04,28,06,30,4.50
2016,04,28,06,31,4.50
2016,04,28,06,32,4.50
2016,04,28,06,33,4.50
2016,04,28,06,34,4.50
2016,04,28,06,35,4.50
2016,04,28,06,36,4.50
2016,04,28,06,37,4.50
2016,04,28,06,38,4.50
2016,04,28,06,39,4.50
2016,04,28,06,40,4.50
2016,04,28,06,41,4.50
2016,04,28,06,42,4.50
2016,04,28,06,43,4.50
2016,04,28,06,44,4.50
2016,04,28,06,45,4.60
2016,04,28,06,46,4.60
2016,04,28,06,47,4.60
2016,04,28,06,48,4.70
2016,04,28,06,49,4.70
2016,04,28,06,50,4.70
2016,04,28,06,51,4.70
2016,04,28,06,52,4.80
2016,04,28,06,53,4.80
2016,04,28,06,54,4.80
2016,04,28,06,55,4.80
2016,04,28,06,56,4.80
2016,04,28,06,57,4.80
2016,04,28,06,58,4.80
2016,04,28,06,59,4.80
2016,04,28,07,00,4.80
2016,04,28,07,01,4.80
2016,04,28,07,02,4.90
2016,04,28,07,03,4.90
2016,04,28,07,04,4.90
2016,04,28,07,05,4.90
2016,04,28,07,06,5.00
2016,04,28,07,07,5.00
2016,04,28,07,08,5.00
2016,04,28,07,09,5.10
2016,04,28,07,10,5.10
2016,04,28,07,11,5.10
2016,04,28,07,12,5.10
2016,04,28,07,13,5.10
2016,04,28,07,14,5.20
2016,04,28,07,15,5.20
2016,04,28,07,16,5.20
2016,04,28,07,17,5.20
2016,04,28,07,18,5.20
2016,04,28,07,19,5.30
2016,04,28,07,20,5.30
2016,04,28,07,21,5.30
2016,04,28,07,22,5.40
2016,04,28,07,23,5.40
2016,04,28,07,24,5.50
2016,04,28,07,25,5.50
2016,04,28,07,26,5.60
2016,04,28,07,27,5.60
2016,04,28,07,28,5.70
2016,04,28,07,29,5.70
2016,04,28,07,30,5.70
2016,04,28,07,31,5.70
2016,04,28,07,32,5.70
2016,04,28,07,33,5.70
2016,04,28,07,34,5.70
2016,04,28,07,35,5.70
2016,04,28,07,36,5.70
2016,04,28,07,37,5.70
2016,04,28,07,38,5.80
2016,04,28,07,39,5.80
2016,04,28,07,40,5.80
2016,04,28,07,41,5.90
2016,04,28,07,42,6.00
2016,04,28,07,43,6.00
2016,04,28,07,44,6.10
2016,04,28,07,45,6.20
2016,04,28,07,46,6.20
2016,04,28,07,47,6.30
2016,04,28,07,48,6.20
2016,04,28,07,49,6.30
2016,04,28,07,50,6.30
2016,04,28,07,51,6.30
2016,04,28,07,52,6.30
2016,04,28,07,53,6.30
2016,04,28,07,54,6.30
2016,04,28,07,55,6.30
2016,04,28,07,56,6.40
2016,04,28,07,57,6.50
2016,04,28,07,58,6.50
2016,04,28,07,59,6.60
2016,04,28,08,00,6.60
2016,04,28,08,01,6.70
2016,04,28,08,02,6.60
2016,04,28,08,03,6.60
2016,04,28,08,04,6.60
2016,04,28,08,05,6.60
2016,04,28,08,06,6.60
2016,04,28,08,07,6.60
2016,04,28,08,08,6.60
2016,04,28,08,09,6.60
2016,04,28,08,10,6.60
2016,04,28,08,11,6.60
2016,04,28,08,12,6.60
2016,04,28,08,13,6.60
2016,04,28,08,14,6.60
2016,04,28,08,15,6.70
2016,04,28,08,16,6.70
2016,04,28,08,17,6.70
2016,04,28,08,18,6.70
2016,04,28,08,19,6.70
2016,04,28,08,20,6.70
2016,04,28,08,21,6.60
2016,04,28,08,22,6.60
2016,04,28,08,23,6.60
2016,04,28,08,24,6.70
2016,04,28,08,25,6.70
2016,04,28,08,26,6.70
2016,04,28,08,27,6.70
2016,04,28,08,28,6.70
2016,04,28,08,29,6.70
2016,04,28,08,30,6.70
2016,04,28,08,31,6.70
2016,04,28,08,32,6.70
2016,04,28,08,33,6.70
2016,04,28,08,34,6.80
2016,04,28,08,35,6.80
2016,04,28,08,36,6.80
2016,04,28,08,37,6.90
2016,04,28,08,38,6.90
2016,04,28,08,39,6.90
2016,04,28,08,40,6.90
2016,04,28,08,41,6.90
2016,04,28,08,42,6.90
2016,04,28,08,43,6.90
2016,04,28,08,44,6.90
2016,04,28,08,45,6.90
2016,04,28,08,46,6.90
2016,04,28,08,47,6.90
2016,04,28,08,48,7.00
2016,04,28,08,49,7.00
2016,04,28,08,50,7.10
2016,04,28,08,51,7.10
2016,04,28,08,52,7.10
2016,04,28,08,53,7.10
2016,04,28,08,54,7.10
2016,04,28,08,55,7.10
2016,04,28,08,56,7.20
2016,04,28,08,57,7.20
2016,04,28,08,58,7.30
2016,04,28,08,59,7.30
2016,04,28,09,00,7.40
2016,04,28,09,01,7.40
2016,04,28,09,02,7.40
2016,04,28,09,03,7.50
2016,04,28,09,04,7.50
2016,04,28,09,05,7.50
2016,04,28,09,06,7.50
2016,04,28,09,07,7.50
2016,04,28,09,08,7.60
2016,04,28,09,09,7.60
2016,04,28,09,10,7.70
2016,04,28,09,11,7.70
2016,04,28,09,12,7.70
2016,04,28,09,13,7.80
2016,04,28,09,14,7.80
2016,04,28,09,15,7.90
2016,04,28,09,16,7.90
2016,04,28,09,17,8.00
2016,04,28,09,18,8.00
2016,04,28,09,19,8.00
2016,04,28,09,20,8.10
2016,04,28,09,21,8.10
2016,04,28,09,22,8.20
2016,04,28,09,23,8.20
2016,04,28,09,24,8.30
2016,04,28,09,25,8.30
2016,04,28,09,26,8.40
2016,04,28,09,27,8.40
2016,04,28,09,28,8.50
2016,04,28,09,29,8.40
2016,04,28,09,30,8.50
2016,04,28,09,31,8.50
2016,04,28,09,32,8.60
2016,04,28,09,33,8.60
2016,04,28,09,34,8.70
2016,04,28,09,35,8.70
2016,04,28,09,36,8.70
2016,04,28,09,37,8.70
2016,04,28,09,38,8.70
2016,04,28,09,39,8.70
2016,04,28,09,40,8.70
2016,04,28,09,41,8.70
2016,04,28,09,42,8.80
2016,04,28,09,43,8.80
2016,04,28,09,44,8.90
2016,04,28,09,45,8.90
2016,04,28,09,46,9.00
2016,04,28,09,47,9.10
2016,04,28,09,48,9.10
2016,04,28,09,49,9.20
2016,04,28,09,50,9.20
2016,04,28,09,51,9.20
2016,04,28,09,52,9.30
2016,04,28,09,53,9.30
2016,04,28,09,54,9.30
2016,04,28,09,55,9.30
2016,04,28,09,56,9.30
2016,04,28,09,57,9.30
2016,04,28,09,58,9.30
2016,04,28,09,59,9.30
2016,04,28,10,00,9.50
2016,04,28,10,01,9.80
2016,04,28,10,02,9.80
2016,04,28,10,03,9.90
2016,04,28,10,04,10.00
2016,04,28,10,05,10.10
2016,04,28,10,06,10.20
2016,04,28,10,07,10.30
2016,04,28,10,08,10.40
2016,04,28,10,09,10.40
2016,04,28,10,10,10.40
2016,04,28,10,11,10.40
2016,04,28,10,12,10.50
2016,04,28,10,13,10.60
2016,04,28,10,14,10.60
2016,04,28,10,15,10.60
2016,04,28,10,16,10.70
2016,04,28,10,17,10.70
2016,04,28,10,18,10.70
2016,04,28,10,19,10.80
2016,04,28,10,20,10.80
2016,04,28,10,21,10.80
2016,04,28,10,22,10.80
2016,04,28,10,23,10.80
2016,04,28,10,24,10.80
2016,04,28,10,25,10.80
2016,04,28,10,26,10.90
2016,04,28,10,27,11.00
2016,04,28,10,28,11.00
2016,04,28,10,29,11.10
2016,04,28,10,30,11.10
2016,04,28,10,31,11.20
2016,04,28,10,32,11.20
2016,04,28,10,33,11.10
2016,04,28,10,34,11.10
2016,04,28,10,35,11.20
2016,04,28,10,36,11.20
2016,04,28,10,37,11.20
2016,04,28,10,38,11.20
2016,04,28,10,39,11.20
2016,04,28,10,40,11.20
2016,04,28,10,41,11.30
2016,04,28,10,42,11.40
2016,04,28,10,43,11.50
2016,04,28,10,44,11.50
2016,04,28,10,45,11.50
2016,04,28,10,46,11.60
2016,04,28,10,47,11.60
2016,04,28,10,48,11.70
2016,04,28,10,49,11.70
2016,04,28,10,50,11.80
2016,04,28,10,51,11.80
2016,04,28,10,52,11.80
2016,04,28,10,53,11.80
2016,04,28,10,54,11.90
2016,04,28,10,55,12.00
2016,04,28,10,56,12.00
2016,04,28,10,57,12.10
2016,04,28,10,58,12.10
2016,04,28,10,59,12.10
2016,04,28,11,00,12.20
2016,04,28,11,01,12.20
2016,04,28,11,02,12.20
2016,04,28,11,03,12.30
2016,04,28,11,04,12.30
2016,04,28,11,05,12.30
2016,04,28,11,06,12.30
2016,04,28,11,07,12.40
2016,04,28,11,08,12.50
2016,04,28,11,09,12.50
2016,04,28,11,10,12.60
2016,04,28,11,11,12.60
2016,04,28,11,12,12.70
2016,04,28,11,13,12.70
2016,04,28,11,14,12.70
2016,04,28,11,15,12.70
2016,04,28,11,16,12.70
2016,04,28,11,17,12.70
2016,04,28,11,18,12.70
2016,04,28,11,19,12.70
2016,04,28,11,20,12.80
2016,04,28,11,21,12.80
2016,04,28,11,22,12.90
2016,04,28,11,23,12.90
2016,04,28,11,24,13.00
2016,04,28,11,25,13.10
2016,04,28,11,26,13.20
2016,04,28,11,27,13.30
2016,04,28,11,28,13.40
2016,04,28,11,29,13.40
2016,04,28,11,30,13.50
2016,04,28,11,31,13.50
2016,04,28,11,32,13.60
2016,04,28,11,33,13.60
2016,04,28,11,34,13.60
2016,04,28,11,35,13.70
2016,04,28,11,36,13.80
2016,04,28,11,37,13.80
2016,04,28,11,38,13.80
2016,04,28,11,39,13.80
2016,04,28,11,40,13.80
2016,04,28,11,41,13.80
2016,04,28,11,42,13.80
2016,04,28,11,43,13.80
2016,04,28,11,44,13.90
2016,04,28,11,45,13.90
2016,04,28,11,46,14.00
2016,04,28,11,47,14.00
2016,04,28,11,48,14.10
2016,04,28,11,49,14.20
2016,04,28,11,50,14.30
2016,04,28,11,51,14.50
2016,04,28,11,52,14.60
2016,04,28,11,53,14.70
2016,04,28,11,54,14.80
2016,04,28,11,55,14.80
2016,04,28,11,56,14.90
2016,04,28,11,57,14.90
2016,04,28,11,58,14.90
2016,04,28,11,59,14.90
2016,04,28,12,00,14.90
2016,04,28,12,01,15.00
2016,04,28,12,02,15.10
2016,04,28,12,03,15.20
2016,04,28,12,04,15.20
2016,04,28,12,05,15.30
2016,04,28,12,06,15.30
2016,04,28,12,07,15.40
2016,04,28,12,08,15.50
2016,04,28,12,09,15.50
2016,04,28,12,10,15.60
2016,04,28,12,11,15.60
2016,04,28,12,12,15.70
2016,04,28,12,13,15.70
2016,04,28,12,14,15.60
2016,04,28,12,15,15.60
2016,04,28,12,16,15.50
2016,04,28,12,17,15.50
2016,04,28,12,18,15.50
2016,04,28,12,19,15.50
2016,04,28,12,20,15.60
2016,04,28,12,21,15.70
2016,04,28,12,22,15.80
2016,04,28,12,23,15.80
2016,04,28,12,24,15.80
2016,04,28,12,25,15.90
2016,04,28,12,26,15.90
2016,04,28,12,27,15.90
2016,04,28,12,28,15.90
2016,04,28,12,29,15.90
2016,04,28,12,30,15.90
2016,04,28,12,31,15.80
2016,04,28,12,32,15.80
2016,04,28,12,33,15.80
2016,04,28,12,34,15.90
2016,04,28,12,35,15.90
2016,04,28,12,36,16.00
2016,04,28,12,37,16.00
2016,04,28,12,38,16.00
2016,04,28,12,39,16.00
2016,04,28,12,40,16.00
2016,04,28,12,41,16.00
2016,04,28,12,42,15.90
2016,04,28,12,43,15.90
2016,04,28,12,44,15.90
2016,04,28,12,45,15.90
2016,04,28,12,46,15.90
2016,04,28,12,47,15.90
2016,04,28,12,48,15.90
2016,04,28,12,49,15.90
2016,04,28,12,50,15.80
2016,04,28,12,51,15.80
2016,04,28,12,52,15.80
2016,04,28,12,53,15.70
2016,04,28,12,54,15.70
2016,04,28,12,55,15.60
2016,04,28,12,56,15.70
2016,04,28,12,57,15.70
2016,04,28,12,58,15.70
2016,04,28,12,59,15.80
2016,04,28,13,00,15.80
2016,04,28,13,01,15.90
2016,04,28,13,02,15.90
2016,04,28,13,03,15.90
2016,04,28,13,04,16.00
2016,04,28,13,05,16.00
2016,04,28,13,06,16.00
2016,04,28,13,07,16.00
2016,04,28,13,08,16.10
2016,04,28,13,09,16.20
2016,04,28,13,10,16.30
2016,04,28,13,11,16.30
2016,04,28,13,12,16.40
2016,04,28,13,13,16.40
2016,04,28,13,14,16.40
2016,04,28,13,15,16.30
2016,04,28,13,16,16.30
2016,04,28,13,17,16.30
2016,04,28,13,18,16.30
2016,04,28,13,19,16.30
2016,04,28,13,20,16.30
2016,04,28,13,21,16.30
2016,04,28,13,22,16.40
2016,04,28,13,23,16.30
2016,04,28,13,24,16.30
2016,04,28,13,25,16.20
2016,04,28,13,26,16.30
2016,04,28,13,27,16.30
2016,04,28,13,28,16.40
2016,04,28,13,29,16.40
2016,04,28,13,30,16.40
2016,04,28,13,31,16.30
2016,04,28,13,32,16.20
2016,04,28,13,33,16.20
2016,04,28,13,34,16.10
2016,04,28,13,35,16.00
2016,04,28,13,36,15.90
2016,04,28,13,37,15.80
2016,04,28,13,38,15.70
2016,04,28,13,39,15.70
2016,04,28,13,40,15.70
2016,04,28,13,41,15.70
2016,04,28,13,42,15.60
2016,04,28,13,43,15.60
2016,04,28,13,44,15.50
2016,04,28,13,45,15.50
2016,04,28,13,46,15.50
2016,04,28,13,47,15.50
2016,04,28,13,48,15.50
2016,04,28,13,49,15.60
2016,04,28,13,50,15.60
2016,04,28,13,51,15.70
2016,04,28,13,52,15.70
2016,04,28,13,53,15.70
2016,04,28,13,54,15.70
2016,04,28,13,55,15.60
2016,04,28,13,56,15.60
2016,04,28,13,57,15.60
2016,04,28,13,58,15.60
2016,04,28,13,59,15.70
2016,04,28,14,00,15.80
2016,04,28,14,01,15.80
2016,04,28,14,02,15.90
2016,04,28,14,03,15.80
2016,04,28,14,04,15.70
2016,04,28,14,05,15.80
2016,04,28,14,06,15.80
2016,04,28,14,07,15.90
2016,04,28,14,08,15.90
2016,04,28,14,09,15.80
2016,04,28,14,10,15.80
2016,04,28,14,11,15.70
2016,04,28,14,12,15.70
2016,04,28,14,13,15.70
2016,04,28,14,14,15.60
2016,04,28,14,15,15.60
2016,04,28,14,16,15.70
2016,04,28,14,17,15.70
2016,04,28,14,18,15.80
2016,04,28,14,19,15.90
2016,04,28,14,20,16.00
2016,04,28,14,21,15.90
2016,04,28,14,22,15.70
2016,04,28,14,23,15.70
2016,04,28,14,24,15.70
2016,04,28,14,25,15.70
2016,04,28,14,26,15.60
2016,04,28,14,27,15.60
2016,04,28,14,28,15.50
2016,04,28,14,29,15.60
2016,04,28,14,30,15.70
2016,04,28,14,31,15.70
2016,04,28,14,32,15.60
2016,04,28,14,33,15.60
2016,04,28,14,34,15.70
2016,04,28,14,35,15.70
2016,04,28,14,36,15.70
2016,04,28,14,37,15.50
2016,04,28,14,38,15.30
2016,04,28,14,39,15.20
2016,04,28,14,40,15.20
2016,04,28,14,41,15.00
2016,04,28,14,42,14.90
2016,04,28,14,43,15.00
2016,04,28,14,44,15.00
2016,04,28,14,45,15.10
2016,04,28,14,46,15.20
2016,04,28,14,47,15.30
2016,04,28,14,48,15.30
2016,04,28,14,49,15.40
2016,04,28,14,50,15.40
2016,04,28,14,51,15.30
2016,04,28,14,52,15.30
2016,04,28,14,53,15.20
2016,04,28,14,54,15.30
2016,04,28,14,55,15.20
2016,04,28,14,56,15.20
2016,04,28,14,57,15.30
2016,04,28,14,58,15.40
2016,04,28,14,59,15.30
2016,04,28,15,00,15.20
2016,04,28,15,01,15.20
2016,04,28,15,02,15.20
2016,04,28,15,03,15.20
2016,04,28,15,04,15.20
2016,04,28,15,05,15.00
2016,04,28,15,06,14.80
2016,04,28,15,07,14.80
2016,04,28,15,08,14.80
2016,04,28,15,09,14.80
2016,04,28,15,10,15.00
2016,04,28,15,11,15.10
2016,04,28,15,12,15.20
2016,04,28,15,13,15.10
2016,04,28,15,14,15.00
2016,04,28,15,15,15.00
2016,04,28,15,16,14.90
2016,04,28,15,17,14.80
2016,04,28,15,18,14.80
2016,04,28,15,19,14.80
2016,04,28,15,20,14.70
2016,04,28,15,21,14.70
2016,04,28,15,22,14.60
2016,04,28,15,23,14.60
2016,04,28,15,24,14.50
2016,04,28,15,25,14.40
2016,04,28,15,26,14.30
2016,04,28,15,27,14.20
2016,04,28,15,28,14.30
2016,04,28,15,29,14.30
2016,04,28,15,30,14.20
2016,04,28,15,31,14.20
2016,04,28,15,32,14.20
2016,04,28,15,33,14.30
2016,04,28,15,34,14.30
2016,04,28,15,35,14.30
2016,04,28,15,36,14.30
2016,04,28,15,37,14.30
2016,04,28,15,38,14.30
2016,04,28,15,39,14.30
2016,04,28,15,40,14.20
2016,04,28,15,41,14.20
2016,04,28,15,42,14.10
2016,04,28,15,43,14.10
2016,04,28,15,44,14.00
2016,04,28,15,45,14.00
2016,04,28,15,46,14.00
2016,04,28,15,47,14.00
2016,04,28,15,48,14.10
2016,04,28,15,49,14.00
2016,04,28,15,50,14.00
2016,04,28,15,51,13.90
2016,04,28,15,52,13.80
2016,04,28,15,53,13.80
2016,04,28,15,54,13.80
2016,04,28,15,55,13.80
2016,04,28,15,56,13.80
2016,04,28,15,57,13.80
2016,04,28,15,58,13.90
2016,04,28,15,59,14.00
2016,04,28,16,00,14.00
2016,04,28,16,01,14.00
2016,04,28,16,02,14.00
2016,04,28,16,03,14.00
2016,04,28,16,04,14.10
2016,04,28,16,05,14.10
2016,04,28,16,06,14.10
2016,04,28,16,07,14.00
2016,04,28,16,08,13.90
2016,04,28,16,09,13.90
2016,04,28,16,10,13.90
2016,04,28,16,11,13.90
2016,04,28,16,12,13.80
2016,04,28,16,13,13.80
2016,04,28,16,14,13.80
2016,04,28,16,15,13.80
2016,04,28,16,16,13.70
2016,04,28,16,17,13.70
2016,04,28,16,18,13.70
2016,04,28,16,19,13.70
2016,04,28,16,20,13.70
2016,04,28,16,21,13.70
2016,04,28,16,22,13.60
2016,04,28,16,23,13.60
2016,04,28,16,24,13.60
2016,04,28,16,25,13.60
2016,04,28,16,26,13.60
2016,04,28,16,27,13.60
2016,04,28,16,28,13.50
2016,04,28,16,29,13.60
2016,04,28,16,30,13.50
2016,04,28,16,31,13.50
2016,04,28,16,32,13.50
2016,04,28,16,33,13.50
2016,04,28,16,34,13.50
2016,04,28,16,35,13.60
2016,04,28,16,36,13.50
2016,04,28,16,37,13.50
2016,04,28,16,38,13.40
2016,04,28,16,39,13.30
2016,04,28,16,40,13.30
2016,04,28,16,41,13.30
2016,04,28,16,42,13.30
2016,04,28,16,43,13.30
2016,04,28,16,44,13.30
2016,04,28,16,45,13.30
2016,04,28,16,46,13.30
2016,04,28,16,47,13.30
2016,04,28,16,48,13.30
2016,04,28,16,49,13.30
2016,04,28,16,50,13.30
2016,04,28,16,51,13.30
2016,04,28,16,52,13.30
2016,04,28,16,53,13.30
2016,04,28,16,54,13.30
2016,04,28,16,55,13.30
2016,04,28,16,56,13.30
2016,04,28,16,57,13.30
2016,04,28,16,58,13.30
2016,04,28,16,59,13.30
2016,04,28,17,00,13.20
2016,04,28,17,01,13.20
2016,04,28,17,02,13.20
2016,04,28,17,03,13.20
2016,04,28,17,04,13.20
2016,04,28,17,05,13.10
2016,04,28,17,06,13.10
2016,04,28,17,07,13.10
2016,04,28,17,08,13.10
2016,04,28,17,09,13.10
2016,04,28,17,10,13.00
2016,04,28,17,11,13.00
2016,04,28,17,12,13.00
2016,04,28,17,13,13.00
2016,04,28,17,14,12.90
2016,04,28,17,15,12.90
2016,04,28,17,16,12.90
2016,04,28,17,17,12.90
2016,04,28,17,18,12.90
2016,04,28,17,19,12.90
2016,04,28,17,20,12.90
2016,04,28,17,21,12.90
2016,04,28,17,22,12.90
2016,04,28,17,23,13.00
2016,04,28,17,24,13.00
2016,04,28,17,25,13.00
2016,04,28,17,26,13.00
2016,04,28,17,27,13.10
2016,04,28,17,28,13.10
2016,04,28,17,29,13.10
2016,04,28,17,30,13.10
2016,04,28,17,31,13.10
2016,04,28,17,32,13.10
2016,04,28,17,33,13.00
2016,04,28,17,34,13.00
2016,04,28,17,35,12.90
2016,04,28,17,36,12.90
2016,04,28,17,37,12.90
2016,04,28,17,38,12.90
2016,04,28,17,39,12.90
2016,04,28,17,40,12.90
2016,04,28,17,41,12.80
2016,04,28,17,42,12.80
2016,04,28,17,43,12.80
2016,04,28,17,44,12.80
2016,04,28,17,45,12.80
2016,04,28,17,46,12.80
2016,04,28,17,47,12.80
2016,04,28,17,48,12.70